Date,TemperatureHighF,TemperatureAvgF,TemperatureLowF,DewpointHighF,DewpointAvgF,DewpointLowF,HumidityHigh,HumidityAvg,HumidityLow,PressureMaxIn,PressureMinIn,WindSpeedMaxMPH,WindSpeedAvgMPH,GustSpeedMaxMPH,PrecipitationSumIn
2013-1-1,33.3,26.5,12.9,24.0,19.4,10.2,89,75,59,30.15,30.05,12,2,13,0.00
2013-1-2,25.6,16.7,10.2,16.2,11.0,6.8,92,78,65,30.22,30.13,8,1,12,0.00
2013-1-3,30.2,23.2,9.4,25.2,17.9,6.2,89,80,73,30.24,30.12,15,2,17,0.00
2013-1-4,30.0,23.2,14.7,22.7,17.7,10.8,92,79,69,30.24,30.15,19,4,19,0.00
2013-1-5,34.9,27.0,15.1,30.6,23.0,12.8,94,85,75,30.27,30.01,14,2,17,0.00
2013-1-6,35.5,33.1,28.5,31.6,28.6,23.5,92,83,76,30.30,29.91,17,4,23,0.00
2013-1-7,35.1,27.1,16.1,27.1,22.2,13.7,93,82,69,30.37,30.14,16,3,19,0.00
2013-1-8,38.0,29.9,22.1,29.8,25.0,19.6,92,82,71,30.22,30.09,10,2,12,0.00
2013-1-9,49.7,40.8,28.2,34.8,29.8,22.1,87,66,37,30.45,30.05,20,4,25,0.00
2013-1-10,42.2,32.8,22.3,36.7,28.0,20.0,100,83,65,30.50,30.02,9,1,11,0.36
2013-1-11,55.1,48.2,36.9,51.5,45.6,35.6,97,91,82,30.02,29.72,18,4,23,0.62
2013-1-12,60.4,51.2,39.0,50.0,45.0,37.0,93,80,59,29.91,29.75,13,3,16,0.36
2013-1-13,38.9,33.3,21.8,37.3,31.2,17.4,95,92,83,30.16,29.76,18,4,22,0.34
2013-1-14,25.8,21.6,16.5,19.2,16.4,13.2,92,80,70,30.45,30.17,15,2,21,0.00
2013-1-15,31.6,21.6,11.7,22.8,16.7,8.9,91,82,64,30.43,30.15,7,0,7,0.00
2013-1-16,36.4,27.8,16.5,27.9,20.6,13.9,94,76,48,30.15,29.86,19,3,24,0.00
2013-1-17,35.2,30.5,22.4,29.1,21.9,13.8,84,71,54,30.36,30.02,23,4,24,0.00
2013-1-18,39.2,29.6,21.2,27.4,20.7,14.2,82,69,60,30.42,29.98,22,5,24,0.00
2013-1-19,48.0,42.3,37.1,36.8,32.3,27.2,75,68,60,29.98,29.70,25,7,30,0.00
2013-1-20,41.4,22.0,17.7,29.3,13.1,8.4,81,69,47,30.24,29.73,42,6,44,0.00
2013-1-21,19.2,13.3,8.5,9.8,6.2,0.6,87,74,55,30.21,30.08,20,5,26,0.04
2013-1-22,13.0,7.6,2.8,5.2,1.3,-1.9,86,75,59,30.36,30.21,15,3,17,0.07
2013-1-23,18.9,14.0,8.2,16.5,6.7,0.7,90,73,59,30.33,30.10,14,2,15,0.04
2013-1-24,21.4,13.5,0.6,14.7,5.2,-3.0,90,70,46,30.63,30.19,14,1,15,0.00
2013-1-25,25.6,21.1,17.7,21.7,15.2,7.6,86,78,64,30.44,30.00,10,1,13,0.00
2013-1-26,29.3,25.8,20.2,22.5,20.2,16.9,90,79,71,30.42,30.07,10,1,12,0.00
2013-1-27,33.9,27.0,18.6,32.0,22.2,15.7,93,82,72,30.43,30.01,15,2,21,0.08
2013-1-28,49.9,43.2,33.9,48.8,41.8,32.1,100,95,91,30.02,29.85,15,3,16,0.04
2013-1-29,57.5,53.7,41.4,55.7,52.4,39.5,100,95,92,29.91,29.34,18,5,22,1.36
2013-1-30,54.5,44.4,27.4,53.1,42.6,24.3,98,93,84,29.45,29.12,22,4,26,0.85
2013-1-31,27.4,18.4,12.0,24.3,13.9,8.5,92,82,69,30.03,29.45,28,6,30,0.02
2013-2-1,14.3,9.2,3.6,9.1,4.0,-0.4,88,79,65,30.36,30.03,18,4,23,0.01
2013-2-2,25.8,19.5,13.9,22.7,15.7,8.9,99,85,73,30.24,29.96,11,2,13,0.12
2013-2-3,21.8,17.7,13.0,18.1,13.0,8.7,95,81,74,30.05,29.93,15,2,22,0.01
2013-2-4,27.9,23.6,19.2,22.8,20.0,14.3,93,86,80,30.05,29.84,7,1,10,0.16
2013-2-5,30.2,23.4,5.1,28.4,20.4,2.4,95,88,77,30.01,29.80,14,2,16,0.06
2013-2-6,34.6,29.1,20.9,25.4,22.4,18.4,93,77,59,30.25,30.00,8,1,9,0.00
2013-2-7,42.2,33.6,23.2,33.9,28.0,19.9,92,80,63,30.18,29.79,8,1,9,0.15
2013-2-8,35.6,31.8,27.8,33.2,26.4,21.4,95,80,65,30.35,29.80,21,6,23,0.00
2013-2-9,35.9,26.1,13.1,26.4,20.8,10.6,93,81,65,30.41,30.17,12,2,15,0.00
2013-2-10,47.2,36.8,25.9,45.2,32.5,22.1,96,84,74,30.17,29.57,17,3,17,0.10
2013-2-11,50.2,36.8,30.9,46.0,28.8,22.7,93,72,64,29.96,29.54,27,8,39,0.01
2013-2-12,34.9,29.9,27.2,24.8,22.9,21.4,80,75,64,30.09,29.93,17,3,22,0.00
2013-2-13,46.6,31.9,19.9,31.2,25.6,17.2,94,79,52,29.94,29.70,15,2,20,0.00
2013-2-14,41.0,36.2,31.3,34.9,30.0,21.8,91,79,59,29.93,29.68,22,5,26,0.00
2013-2-15,34.3,28.7,23.3,26.4,21.0,14.9,89,73,58,30.15,29.92,15,3,19,0.02
2013-2-16,24.8,20.2,14.3,19.9,13.9,7.2,87,77,57,30.14,30.06,21,4,24,0.00
2013-2-17,30.1,21.5,11.6,19.1,13.9,8.5,89,74,47,30.23,30.12,9,1,12,0.00
2013-2-18,52.2,38.1,24.0,43.7,29.7,15.1,92,72,60,30.13,29.43,23,6,26,0.07
2013-2-19,45.2,22.0,15.2,42.5,17.7,10.6,92,83,72,30.07,29.42,30,6,30,0.05
2013-2-20,24.5,19.6,15.1,19.4,15.7,11.6,90,84,75,30.33,30.07,19,4,20,0.02
2013-2-21,28.3,24.7,20.7,21.3,18.8,15.8,85,78,70,30.37,30.07,14,2,21,0.00
2013-2-22,34.0,28.1,21.4,32.5,25.3,16.8,95,89,78,30.08,29.83,16,3,20,0.32
2013-2-23,29.7,27.5,25.9,24.2,21.1,18.5,85,77,65,29.95,29.89,19,4,19,0.00
2013-2-24,40.4,29.8,22.0,25.8,22.1,18.4,89,74,52,30.15,29.94,12,2,16,0.00
2013-2-25,43.6,31.2,17.2,29.7,23.7,14.7,90,75,53,30.20,30.00,9,1,10,0.00
2013-2-26,34.5,32.9,30.9,32.8,28.6,23.9,95,84,67,30.02,29.44,23,3,23,0.56
2013-2-27,36.2,34.3,32.8,33.7,32.5,31.5,95,93,89,29.59,29.44,10,1,12,0.11
2013-2-28,39.6,35.0,32.1,33.5,31.1,27.7,99,86,75,29.97,29.58,16,5,19,0.00
2013-3-1,36.1,31.6,26.7,28.3,24.2,18.5,85,74,61,30.13,29.96,14,3,14,0.00
2013-3-2,33.2,28.4,24.8,21.8,19.6,16.5,78,69,58,30.12,30.07,17,5,19,0.00
2013-3-3,34.2,27.1,19.3,20.9,17.4,14.2,85,67,49,30.10,30.04,16,3,17,0.00
2013-3-4,37.0,27.5,16.3,27.0,19.2,13.2,90,72,52,30.15,30.02,9,1,11,0.00
2013-3-5,34.0,30.8,27.8,28.4,26.1,23.1,95,83,69,30.06,29.75,15,3,18,0.63
2013-3-6,37.7,32.5,27.0,30.7,27.3,24.1,94,82,68,30.25,29.85,14,4,16,0.08
2013-3-7,39.9,34.1,22.5,31.3,27.7,19.7,90,78,58,30.41,30.23,11,2,11,0.00
2013-3-8,39.7,27.1,13.1,26.8,20.2,10.3,94,77,50,30.50,30.39,8,1,10,0.00
2013-3-9,42.4,34.0,20.5,34.3,28.1,18.3,92,79,63,30.39,29.93,15,2,15,0.00
2013-3-10,57.7,46.8,35.9,47.0,39.9,32.5,92,78,66,29.93,29.67,11,2,14,0.03
2013-3-11,50.7,44.2,34.3,48.4,41.3,30.4,96,89,74,29.72,29.50,21,4,24,0.05
2013-3-12,36.2,32.8,29.5,30.9,28.0,23.8,93,83,64,29.94,29.72,18,4,23,0.04
2013-3-13,31.4,27.7,24.9,26.6,20.8,14.9,92,76,55,30.29,29.94,21,5,23,0.06
2013-3-14,43.4,31.3,20.2,28.6,20.4,14.9,86,66,41,30.31,30.11,13,2,18,0.00
2013-3-15,49.3,38.6,31.1,41.1,33.8,28.3,97,83,61,30.11,29.77,12,2,12,0.05
2013-3-16,41.3,35.2,29.6,38.9,31.7,22.1,95,87,73,30.08,29.63,12,4,16,0.00
2013-3-17,39.3,32.3,28.2,26.3,22.4,19.7,78,67,51,30.20,30.06,16,3,16,0.00
2013-3-18,35.2,31.5,27.6,33.9,28.1,21.1,100,87,75,30.06,29.57,21,3,24,0.01
2013-3-19,35.5,27.3,20.1,21.4,15.5,11.9,80,62,40,30.03,29.73,29,8,30,0.00
2013-3-20,29.0,23.7,18.8,17.0,13.7,9.2,88,66,49,30.03,29.97,23,5,23,0.01
2013-3-21,32.3,24.0,16.5,21.8,17.1,12.7,91,75,55,30.02,29.95,18,3,21,0.01
2013-3-22,41.2,29.2,18.7,22.3,17.9,11.2,92,66,32,30.06,29.99,16,2,18,0.00
2013-3-23,41.7,30.8,22.2,25.3,22.3,19.0,92,72,51,30.12,30.00,12,2,15,0.00
2013-3-24,38.0,32.8,27.6,26.6,24.6,22.5,82,72,56,30.01,29.58,27,4,31,0.00
2013-3-25,36.5,33.2,28.8,29.2,27.2,24.0,92,79,69,29.98,29.58,19,6,19,0.05
2013-3-26,42.4,35.8,33.4,32.2,29.3,25.4,89,77,55,30.20,29.97,17,4,20,0.01
2013-3-27,43.7,36.7,27.1,32.7,26.6,20.4,87,69,42,30.28,30.20,16,3,22,0.00
2013-3-28,51.4,37.6,26.0,28.4,23.1,18.6,85,59,32,30.32,30.26,15,2,17,0.00
2013-3-29,53.8,38.1,23.8,30.1,23.1,18.1,93,61,26,30.30,30.21,15,2,18,0.00
2013-3-30,56.4,40.3,22.7,37.2,28.5,20.2,93,67,38,30.23,29.89,15,2,15,0.00
2013-3-31,60.9,49.1,39.5,44.2,37.2,28.2,95,66,35,29.89,29.64,20,4,26,0.00
2013-4-1,39.5,34.1,23.0,30.6,20.1,14.2,86,58,40,30.13,29.78,21,5,23,0.00
2013-4-2,41.9,31.1,19.8,22.9,16.3,7.5,93,60,25,30.28,30.13,20,3,23,0.00
2013-4-3,48.5,32.5,16.3,25.6,15.7,8.0,97,58,20,30.43,30.28,14,2,17,0.00
2013-4-4,58.2,38.0,18.9,32.1,21.4,16.9,95,59,21,30.34,29.95,13,2,17,0.00
2013-4-5,52.8,41.3,29.7,31.7,26.0,17.1,86,58,25,30.18,29.93,16,4,17,0.00
2013-4-6,66.2,48.5,29.7,43.8,31.0,25.3,87,54,33,30.15,29.68,26,5,27,0.00
2013-4-7,61.7,52.6,37.0,48.7,41.4,33.8,88,67,47,29.94,29.60,24,4,32,0.04
2013-4-8,70.8,50.5,35.6,57.1,43.4,32.8,94,78,51,29.96,29.64,32,4,38,0.10
2013-4-9,75.7,57.0,38.9,60.7,49.4,37.3,96,77,52,29.99,29.76,20,2,20,0.00
2013-4-10,57.6,47.8,41.8,52.1,45.2,40.7,96,91,81,29.90,29.76,13,3,19,0.32
2013-4-11,43.6,42.3,39.8,42.3,41.3,39.0,97,96,94,29.92,29.56,19,3,19,1.97
2013-4-12,44.1,39.9,37.6,39.5,36.5,32.1,98,88,75,29.82,29.54,20,4,22,0.13
2013-4-13,44.3,38.7,34.6,34.6,31.6,28.5,92,77,57,29.97,29.82,18,3,22,0.05
2013-4-14,62.1,47.2,35.1,49.2,39.0,29.8,92,74,57,30.03,29.76,14,2,15,0.00
2013-4-15,63.1,56.6,45.5,57.4,51.0,42.4,95,82,72,29.89,29.75,19,4,22,0.11
2013-4-16,54.7,47.3,42.2,45.2,40.0,32.5,96,78,50,30.21,29.88,12,4,18,0.49
2013-4-17,54.4,48.2,43.9,48.0,41.3,35.4,96,77,64,30.24,29.85,16,3,22,0.77
2013-4-18,70.5,58.9,46.5,65.4,56.5,45.1,97,92,76,29.89,29.45,20,5,27,0.87
2013-4-19,59.5,39.7,33.9,58.4,33.8,28.8,96,80,67,29.83,29.44,29,7,31,0.45
2013-4-20,43.7,36.2,26.7,31.3,24.4,17.5,90,64,39,30.43,29.83,20,5,22,0.00
2013-4-21,52.7,37.2,20.1,34.2,27.0,18.5,97,70,42,30.56,30.38,17,2,17,0.00
2013-4-22,64.8,47.4,28.9,43.0,34.5,27.4,97,66,30,30.39,30.09,11,2,12,0.00
2013-4-23,66.0,50.0,39.5,54.7,44.8,37.6,95,83,56,30.09,29.81,15,3,18,0.53
2013-4-24,46.9,39.3,35.4,39.0,32.6,23.5,96,79,43,30.14,29.81,20,5,23,0.12
2013-4-25,52.1,43.3,32.7,37.2,32.3,27.3,92,67,43,30.33,30.08,22,4,26,0.01
2013-4-26,63.3,46.3,27.6,42.7,35.6,26.5,98,70,43,30.40,30.27,18,3,18,0.00
2013-4-27,69.2,53.7,34.3,49.3,40.6,33.3,98,66,31,30.30,30.00,12,2,15,0.00
2013-4-28,58.7,54.7,50.7,54.6,51.8,48.9,96,90,76,30.00,29.78,6,0,7,0.13
2013-4-29,71.2,60.3,46.1,57.2,52.6,45.0,98,78,54,29.91,29.81,14,2,16,0.00
2013-4-30,80.4,67.1,56.2,63.1,56.8,51.3,84,71,51,29.93,29.84,22,5,22,0.00
2013-5-1,83.3,68.2,50.2,61.5,55.8,49.1,98,69,35,30.10,29.93,21,2,21,0.00
2013-5-2,80.8,64.6,50.0,60.6,54.3,44.3,98,73,42,30.12,30.02,11,2,14,0.00
2013-5-3,78.0,61.7,44.9,60.8,50.5,40.9,88,69,46,30.05,29.89,14,2,16,0.00
2013-5-4,73.3,63.3,53.3,54.2,47.3,39.6,91,58,33,29.98,29.91,13,2,16,0.00
2013-5-5,73.3,61.3,43.7,51.7,46.3,42.3,97,61,38,29.98,29.92,13,1,16,0.00
2013-5-6,79.0,64.1,52.9,56.2,47.0,39.6,85,56,26,29.97,29.87,10,1,12,0.00
2013-5-7,79.3,63.0,46.0,56.4,50.7,44.8,98,68,38,29.99,29.91,12,1,16,0.00
2013-5-8,80.9,64.9,47.1,58.2,51.0,45.1,98,66,33,29.98,29.90,12,1,15,0.00
2013-5-9,80.7,62.8,43.7,58.6,51.0,42.6,98,71,31,29.93,29.82,16,1,16,0.10
2013-5-10,63.2,55.7,44.6,60.1,52.8,43.3,96,90,75,29.89,29.70,15,3,18,0.09
2013-5-11,56.3,46.6,36.7,50.9,41.6,33.6,96,84,58,29.96,29.79,26,3,30,0.01
2013-5-12,51.5,42.7,32.5,34.8,31.5,27.6,92,66,42,30.10,29.96,21,4,23,0.00
2013-5-13,61.4,46.3,29.3,37.7,30.8,19.8,97,62,22,30.17,30.05,14,2,22,0.00
2013-5-14,87.0,66.0,44.2,60.4,45.4,27.1,77,49,31,30.05,29.62,19,4,22,0.00
2013-5-15,83.2,74.7,57.0,61.7,54.5,47.6,89,52,31,29.75,29.58,21,4,27,0.06
2013-5-16,86.0,66.9,46.6,56.7,49.0,42.3,98,61,25,29.92,29.75,12,1,14,0.00
2013-5-17,82.8,66.0,49.5,60.9,51.1,43.1,95,62,32,30.01,29.91,11,1,11,0.00
2013-5-18,81.3,67.5,55.3,64.2,53.5,41.5,93,62,48,30.04,29.91,9,1,11,0.02
2013-5-19,87.8,71.4,53.1,66.3,59.7,51.6,96,70,42,29.94,29.74,13,1,13,0.00
2013-5-20,88.3,78.0,65.6,69.8,65.9,61.8,95,68,43,29.80,29.69,19,4,22,0.00
2013-5-21,82.3,73.0,62.9,69.6,64.7,61.4,97,77,56,29.75,29.62,16,3,19,1.05
2013-5-22,76.5,68.5,64.5,67.4,63.5,57.3,96,85,62,29.67,29.59,18,2,23,0.12
2013-5-23,65.2,53.0,42.7,59.0,49.9,39.9,98,89,79,30.17,29.67,16,3,18,0.02
2013-5-24,61.0,49.0,36.0,43.1,38.5,34.6,100,70,41,30.36,30.17,13,3,15,0.01
2013-5-25,68.8,52.8,36.9,49.0,41.5,35.2,97,69,34,30.37,30.23,8,1,11,0.00
2013-5-26,72.5,57.5,38.6,50.4,43.0,37.3,98,63,34,30.28,30.13,11,1,11,0.00
2013-5-27,60.6,55.8,51.5,55.3,50.8,38.5,97,85,45,30.15,29.86,14,1,15,0.44
2013-5-28,79.8,69.1,56.0,70.4,64.3,55.2,98,86,68,29.89,29.73,23,4,28,0.81
2013-5-29,84.0,72.6,61.4,71.5,65.2,59.9,96,79,56,29.92,29.77,17,3,20,0.13
2013-5-30,85.8,75.3,64.1,71.3,66.2,62.2,94,75,53,29.94,29.82,22,4,26,0.00
2013-5-31,77.5,70.9,65.1,68.8,65.9,61.4,95,84,73,29.90,29.69,21,4,24,0.53
2013-6-1,74.2,68.4,63.2,65.8,63.7,61.1,97,86,70,29.78,29.64,15,3,21,0.56
2013-6-2,64.7,58.3,44.4,61.4,52.4,41.1,93,81,64,29.98,29.64,19,4,20,0.00
2013-6-3,71.2,54.6,38.0,50.5,44.2,37.0,100,72,36,30.07,29.98,11,2,11,0.00
2013-6-4,75.8,58.8,40.7,55.9,48.0,39.7,98,72,37,30.14,30.05,10,1,10,0.00
2013-6-5,78.6,64.9,51.9,58.7,51.3,46.7,95,64,39,30.08,29.87,8,1,12,0.00
2013-6-6,75.9,64.7,58.4,57.2,51.7,43.4,79,63,46,29.90,29.77,11,2,13,0.00
2013-6-7,75.4,62.0,49.6,59.2,52.8,48.1,97,74,45,29.87,29.80,11,2,13,0.00
2013-6-8,76.5,62.7,46.7,61.2,52.5,45.4,98,73,42,29.97,29.85,10,1,11,0.00
2013-6-9,81.8,69.0,54.1,66.7,59.3,52.7,98,74,45,29.99,29.79,9,1,12,0.00
2013-6-10,77.0,68.8,64.3,68.8,64.5,61.5,97,87,67,29.82,29.68,12,2,17,1.33
2013-6-11,84.2,71.1,60.9,69.0,63.4,59.8,97,79,49,29.88,29.76,10,1,13,0.00
2013-6-12,87.8,74.1,64.5,76.5,69.2,63.3,98,86,65,29.84,29.55,17,1,24,0.54
2013-6-13,76.3,67.1,57.3,65.2,58.7,53.1,97,77,48,29.94,29.46,20,4,21,0.40
2013-6-14,83.3,65.9,52.5,64.1,57.1,51.1,97,76,39,30.05,29.93,12,2,12,0.00
2013-6-15,75.1,65.4,54.8,66.2,60.9,53.9,98,86,65,30.03,29.85,10,1,10,0.04
2013-6-16,82.1,73.4,65.5,69.1,65.6,60.1,92,77,53,29.86,29.80,16,2,16,0.06
2013-6-17,86.6,74.7,63.0,69.2,62.7,55.1,97,70,38,29.88,29.80,19,1,19,0.01
2013-6-18,78.9,67.3,60.9,65.9,60.2,50.8,96,79,53,29.99,29.81,13,2,13,0.03
2013-6-19,79.8,64.8,48.3,60.0,50.5,45.3,97,64,31,30.11,29.98,9,1,9,0.00
2013-6-20,86.5,68.7,50.3,67.8,58.0,49.1,98,73,37,30.14,30.05,9,1,9,0.00
2013-6-21,86.3,72.6,61.5,69.6,64.4,60.3,97,78,45,30.12,29.91,19,2,19,0.04
2013-6-22,85.0,74.2,64.4,76.6,69.2,63.3,97,85,67,30.04,29.91,10,1,10,0.00
2013-6-23,87.3,75.9,63.3,72.1,67.2,61.8,97,76,49,30.02,29.90,15,2,15,0.00
2013-6-24,85.4,74.2,65.2,71.8,67.5,64.0,97,81,55,30.02,29.84,31,2,31,0.18
2013-6-25,88.1,75.1,64.9,77.7,70.2,63.4,97,86,62,29.93,29.73,19,2,19,0.53
2013-6-26,81.8,71.4,65.2,74.8,68.4,63.8,97,91,69,29.85,29.66,15,1,15,0.58
2013-6-27,86.7,74.8,64.1,73.7,68.8,63.2,98,83,57,29.71,29.60,15,2,15,0.01
2013-6-28,81.7,72.7,64.1,67.6,63.9,59.9,97,75,52,29.62,29.51,17,2,17,0.01
2013-6-29,79.8,65.8,59.6,67.2,62.6,58.6,98,90,60,29.67,29.50,9,1,9,0.95
2013-6-30,81.1,68.0,61.4,67.1,62.1,57.8,98,83,53,29.89,29.66,13,2,13,0.23
2013-7-1,77.8,66.2,55.8,64.0,54.8,46.0,86,67,48,29.99,29.88,22,2,22,0.00
2013-7-2,65.3,62.5,58.2,63.8,59.1,53.3,97,89,68,30.00,29.96,11,2,11,0.63
2013-7-3,78.2,69.5,62.3,68.4,64.5,61.4,98,85,64,30.03,29.95,15,2,15,0.01
2013-7-4,79.0,68.1,56.4,67.3,62.5,55.5,98,84,57,30.09,30.01,10,1,10,0.00
2013-7-5,82.5,72.1,60.4,71.4,66.1,59.5,98,83,59,30.06,29.97,9,1,9,0.00
2013-7-6,80.7,72.6,65.3,72.4,68.2,64.4,98,87,69,30.03,29.93,9,1,9,0.00
2013-7-7,83.2,74.4,66.9,73.6,69.6,65.5,97,86,67,29.99,29.91,9,1,11,0.04
2013-7-8,80.7,74.6,68.6,74.8,70.8,67.4,97,88,77,29.99,29.89,12,1,13,0.25
2013-7-9,88.0,77.4,69.5,78.0,73.9,68.3,98,89,67,29.94,29.82,18,1,18,0.29
2013-7-10,83.1,76.8,60.3,77.5,69.6,56.6,94,79,54,29.92,29.76,16,2,16,0.00
2013-7-11,81.3,67.8,54.9,66.3,56.8,48.9,98,72,37,30.03,29.92,14,2,14,0.00
2013-7-12,85.5,68.9,52.4,65.7,59.0,51.5,98,75,42,30.10,30.01,11,1,11,0.00
2013-7-13,85.9,70.9,53.7,69.9,62.9,52.9,98,78,52,30.11,30.06,10,0,10,0.00
2013-7-14,91.3,77.2,63.0,74.5,69.1,61.8,98,78,52,30.16,30.10,10,0,10,0.00
2013-7-15,90.8,79.1,68.3,79.8,73.8,67.4,98,85,64,30.21,30.15,8,1,8,0.00
2013-7-16,91.1,80.6,70.0,76.6,72.7,69.1,98,79,54,30.26,30.18,9,1,9,0.00
2013-7-17,93.0,81.2,69.9,78.2,73.1,69.0,98,78,53,30.25,30.11,8,1,12,0.00
2013-7-18,91.8,81.5,70.9,79.0,73.7,70.0,98,79,56,30.12,29.91,14,1,14,0.00
2013-7-19,93.8,84.8,76.1,77.2,74.0,71.1,90,71,49,29.92,29.69,20,3,20,0.00
2013-7-20,91.8,81.2,65.9,74.5,67.8,58.6,92,66,39,29.86,29.69,13,2,13,0.01
2013-7-21,88.0,74.8,63.0,71.5,66.2,61.8,97,77,45,29.92,29.80,11,1,11,0.03
2013-7-22,85.7,73.3,65.5,71.9,67.4,64.5,97,83,55,29.86,29.69,15,1,17,0.83
2013-7-23,81.7,71.5,58.9,70.5,64.0,53.1,96,78,57,29.87,29.64,22,3,22,0.02
2013-7-24,77.6,63.6,50.1,57.9,52.8,48.3,95,70,45,30.00,29.87,13,2,13,0.00
2013-7-25,77.3,63.9,50.0,62.8,56.1,48.9,100,78,47,30.07,29.99,8,1,8,0.00
2013-7-26,75.6,65.8,55.8,64.7,60.0,54.6,97,83,59,30.03,29.84,14,2,14,0.07
2013-7-27,73.2,65.4,57.9,64.9,59.2,48.7,97,81,65,29.85,29.76,24,2,24,0.00
2013-7-28,68.3,59.1,51.5,54.8,50.6,47.9,94,74,52,29.97,29.81,15,3,15,0.00
2013-7-29,75.7,63.8,51.5,59.7,55.1,49.8,95,74,54,30.14,29.96,13,2,14,0.00
2013-7-30,77.8,64.4,49.0,65.0,57.7,48.2,98,81,54,30.17,30.05,9,1,9,0.00
2013-7-31,70.1,66.4,62.7,67.5,64.7,61.2,97,95,90,30.05,29.89,9,1,9,0.14
2013-8-1,80.8,69.4,56.1,68.6,59.7,52.3,98,75,38,29.92,29.88,16,2,18,0.00
2013-8-2,79.3,64.7,52.3,71.1,61.7,51.2,98,90,73,29.92,29.78,17,2,17,0.31
2013-8-3,80.7,70.2,57.0,68.4,60.4,51.6,98,75,39,30.03,29.87,16,2,18,0.01
2013-8-4,79.5,65.1,52.0,62.4,54.8,49.5,98,73,38,30.14,30.03,18,2,18,0.00
2013-8-5,74.3,62.9,49.0,63.2,56.9,47.9,98,82,62,30.09,29.88,13,1,13,0.00
2013-8-6,79.7,69.5,62.2,71.4,65.8,61.0,97,88,73,29.90,29.81,11,1,11,0.75
2013-8-7,80.3,70.8,64.9,74.5,68.6,63.7,98,93,72,29.86,29.76,16,1,16,0.39
2013-8-8,81.5,70.7,61.8,69.5,64.3,59.3,98,81,56,29.95,29.85,14,1,14,0.01
2013-8-9,83.8,70.8,59.5,67.1,61.7,57.9,97,76,45,29.96,29.90,10,1,10,0.00
2013-8-10,83.1,71.9,60.3,69.1,64.0,58.1,97,78,51,30.06,29.96,11,1,11,0.00
2013-8-11,82.3,67.8,54.8,65.6,59.4,53.8,98,78,45,30.08,29.99,11,1,11,0.01
2013-8-12,83.0,71.9,61.7,71.4,65.4,60.3,97,81,59,30.01,29.78,12,1,12,0.02
2013-8-13,72.1,63.5,53.6,64.9,54.6,48.2,96,75,46,30.07,29.83,20,4,20,0.01
2013-8-14,75.2,58.9,44.7,55.8,48.9,43.3,97,73,41,30.17,30.06,12,2,12,0.00
2013-8-15,73.8,58.7,43.4,59.8,51.2,42.3,98,79,51,30.15,30.06,9,1,9,0.01
2013-8-16,81.0,62.8,45.9,60.3,53.4,45.1,98,76,38,30.14,30.09,8,0,8,0.00
2013-8-17,80.5,64.4,48.4,63.0,55.6,47.6,100,77,43,30.20,30.12,10,1,10,0.00
2013-8-18,83.8,66.7,51.2,67.1,58.0,50.3,98,77,42,30.17,30.05,9,0,9,0.00
2013-8-19,84.9,68.2,53.2,66.9,60.0,52.3,100,78,45,30.08,29.99,13,1,13,0.00
2013-8-20,85.0,71.8,58.7,70.1,64.4,57.8,98,80,50,30.09,30.01,12,1,12,0.01
2013-8-21,87.2,74.1,62.0,71.3,66.3,61.1,98,79,49,30.07,29.92,14,1,14,0.00
2013-8-22,78.8,70.0,65.5,71.7,67.2,64.1,98,91,76,30.05,29.89,19,1,19,0.64
2013-8-23,85.2,71.4,57.4,65.9,60.6,51.1,98,73,32,30.12,30.02,10,1,10,0.00
2013-8-24,84.1,66.2,50.7,64.9,56.7,49.8,99,76,39,30.25,30.12,9,1,9,0.01
2013-8-25,87.7,69.8,52.4,67.9,60.8,51.5,99,77,43,30.24,30.11,13,1,13,0.00
2013-8-26,88.3,74.6,60.2,75.0,67.1,59.3,98,79,58,30.14,29.96,13,1,13,0.00
2013-8-27,91.8,81.7,73.7,77.6,71.8,68.2,87,73,54,29.96,29.78,19,2,19,0.00
2013-8-28,88.7,80.0,70.0,77.1,71.1,66.7,96,74,60,29.95,29.77,16,2,19,0.00
2013-8-29,91.1,74.8,62.9,73.0,66.9,61.9,98,80,43,30.01,29.92,7,0,7,0.00
2013-8-30,91.8,76.6,61.6,74.7,68.8,60.7,98,79,52,29.93,29.68,16,2,16,0.00
2013-8-31,83.7,74.5,68.8,74.1,69.9,66.8,96,86,61,29.78,29.69,11,1,11,0.06
2013-9-1,87.3,74.7,66.0,73.5,69.2,65.2,98,84,59,29.75,29.67,12,1,12,0.01
2013-9-2,80.8,70.7,56.7,69.7,62.9,53.4,97,78,50,29.92,29.68,18,3,18,0.02
2013-9-3,77.5,63.4,52.1,59.9,55.3,50.1,96,77,49,30.02,29.90,14,1,14,0.00
2013-9-4,81.9,64.2,47.7,62.4,54.1,46.9,98,75,36,30.08,30.00,18,1,18,0.01
2013-9-5,83.1,65.0,51.0,58.1,50.7,36.1,98,67,19,30.20,30.06,13,1,13,0.00
2013-9-6,82.3,62.4,44.2,64.6,53.2,43.1,98,76,40,30.22,30.00,10,1,10,0.00
2013-9-7,88.9,71.2,58.5,69.9,62.8,55.5,94,77,45,30.01,29.85,13,1,13,0.01
2013-9-8,77.2,69.3,61.4,68.3,64.7,60.5,100,86,69,29.98,29.88,8,1,13,0.01
2013-9-9,91.7,74.6,61.9,74.5,66.2,55.6,92,76,54,29.96,29.79,14,2,14,0.00
2013-9-10,96.8,84.0,74.2,72.6,68.5,62.7,85,62,34,29.96,29.83,16,2,16,0.00
2013-9-11,95.4,80.3,70.1,72.8,69.5,64.8,92,71,38,29.99,29.86,20,2,20,0.00
2013-9-12,85.2,72.5,59.5,68.7,59.8,51.1,94,68,34,29.97,29.80,17,3,18,0.00
2013-9-13,69.7,57.9,45.4,51.9,45.7,41.4,92,66,38,30.09,29.97,18,3,18,0.00
2013-9-14,70.8,52.4,35.2,48.0,40.7,34.1,98,71,32,30.18,30.04,11,1,11,0.00
2013-9-15,64.7,54.0,42.6,57.8,49.3,40.7,95,85,63,30.10,29.97,10,0,10,0.03
2013-9-16,72.5,59.8,48.1,55.4,51.3,44.9,97,76,44,30.30,30.09,12,2,12,0.01
2013-9-17,73.0,54.3,39.1,53.2,46.5,38.0,98,78,45,30.33,30.14,9,0,9,0.00
2013-9-18,81.0,64.5,49.4,62.7,55.2,47.6,95,75,43,30.14,29.92,14,1,14,0.01
2013-9-19,73.0,67.8,64.8,69.3,66.1,62.2,98,94,83,29.99,29.80,14,2,14,3.53
2013-9-20,73.3,70.7,63.7,70.4,67.3,57.1,94,89,79,29.82,29.69,15,2,15,0.01
2013-9-21,67.8,59.7,49.9,57.8,52.7,47.5,95,79,52,29.86,29.69,19,2,19,0.01
2013-9-22,69.6,56.7,43.7,51.8,47.2,41.2,97,73,43,30.02,29.85,14,2,14,0.00
2013-9-23,70.8,51.7,35.5,51.9,44.3,34.6,98,79,46,30.11,30.02,10,1,10,0.00
2013-9-24,72.7,53.7,38.8,53.3,46.0,38.0,98,79,43,30.08,29.91,10,1,10,0.01
2013-9-25,77.0,56.6,41.2,57.9,48.9,40.3,98,80,40,29.95,29.88,10,1,10,0.00
2013-9-26,82.3,57.7,40.1,60.8,48.2,39.3,99,77,31,30.07,29.92,8,0,8,0.00
2013-9-27,81.8,58.6,39.3,59.3,49.5,38.5,98,77,36,30.16,30.06,9,0,9,0.01
2013-9-28,81.8,62.5,45.2,59.7,53.0,44.4,98,76,38,30.10,29.91,15,2,15,0.01
2013-9-29,71.8,63.6,48.2,61.3,55.5,46.8,96,76,52,29.96,29.88,14,2,14,0.15
2013-9-30,74.3,55.3,40.7,57.6,48.7,39.8,98,82,46,29.98,29.87,13,1,13,0.00
2013-10-1,76.5,63.1,49.9,64.9,59.4,48.8,98,88,65,29.97,29.88,14,2,15,0.01
2013-10-2,87.0,69.7,59.3,65.1,60.2,53.3,98,76,37,30.04,29.91,12,1,12,0.00
2013-10-3,76.5,66.1,58.6,70.3,63.9,56.9,98,93,76,29.97,29.83,17,1,17,1.10
2013-10-4,82.3,71.0,62.5,73.7,66.5,61.0,97,86,66,29.95,29.86,11,1,11,0.05
2013-10-5,78.8,68.8,63.1,72.7,66.8,62.2,99,94,77,29.92,29.74,18,1,18,0.51
2013-10-6,67.3,59.7,46.9,66.4,55.5,41.3,100,86,66,29.78,29.64,13,2,13,0.40
2013-10-7,63.4,49.7,42.9,50.4,44.1,40.6,96,82,53,30.08,29.71,19,2,19,0.00
2013-10-8,76.0,54.4,40.6,54.1,46.8,39.8,99,80,36,30.20,30.08,13,1,13,0.00
2013-10-9,76.0,53.5,37.9,56.1,45.4,37.1,100,79,36,30.25,30.13,11,0,11,0.01
2013-10-10,77.9,54.2,37.7,59.1,46.4,36.9,99,80,38,30.17,30.05,8,0,8,0.01
2013-10-11,78.4,55.3,38.7,57.0,46.1,37.9,99,78,32,30.09,29.97,8,0,8,0.00
2013-10-12,78.5,60.7,43.8,63.0,53.1,43.0,99,79,44,30.08,29.95,13,1,13,0.02
2013-10-13,67.7,53.0,38.7,58.1,44.7,37.1,98,77,42,30.35,30.07,16,2,16,0.00
2013-10-14,69.0,47.8,33.3,49.8,41.3,32.5,98,82,45,30.38,30.17,10,1,10,0.01
2013-10-15,64.0,53.5,40.3,61.5,51.7,39.4,100,94,82,30.19,29.78,13,1,13,0.20
2013-10-16,62.0,51.6,45.0,60.2,47.3,42.3,94,85,80,29.91,29.80,15,2,15,0.00
2013-10-17,52.2,49.3,43.4,48.3,45.4,40.8,94,87,77,29.90,29.77,17,2,17,0.09
2013-10-18,60.5,46.6,36.6,47.9,41.2,35.5,100,82,58,29.93,29.84,16,2,16,0.00
2013-10-19,54.4,45.8,41.5,45.0,38.8,31.6,95,78,44,29.91,29.76,14,2,19,0.21
2013-10-20,62.5,51.5,40.8,45.4,41.0,36.8,87,69,49,29.88,29.75,17,3,18,0.00
2013-10-21,56.0,49.7,40.6,48.1,41.0,28.7,92,72,60,29.91,29.78,17,2,17,0.02
2013-10-22,49.2,38.6,31.7,35.2,30.0,25.3,92,72,44,29.95,29.88,18,1,18,0.00
2013-10-23,45.1,38.1,33.8,38.4,34.1,28.3,96,86,55,29.99,29.83,20,1,20,0.11
2013-10-24,44.5,37.7,33.5,37.1,33.3,30.8,95,85,65,30.24,29.96,18,2,18,0.05
2013-10-25,50.2,39.6,29.2,36.2,30.7,25.6,94,73,41,30.36,30.10,18,2,18,0.00
2013-10-26,54.4,45.5,40.6,41.4,33.8,27.5,85,64,55,30.11,29.81,23,4,23,0.01
2013-10-27,56.1,42.1,30.7,39.0,32.4,27.9,96,72,39,30.05,29.96,15,1,15,0.00
2013-10-28,61.5,42.9,30.2,42.3,34.8,27.8,96,76,43,30.33,30.02,8,0,8,0.00
2013-10-29,57.8,43.9,33.3,43.2,37.7,30.7,92,80,55,30.37,30.17,8,0,8,0.00
2013-10-30,61.2,51.2,36.2,58.0,47.4,34.1,95,87,79,30.17,29.83,9,0,9,0.40
2013-10-31,63.6,60.5,52.2,62.4,58.9,50.6,97,95,90,29.83,29.17,21,5,21,0.76
2013-11-1,52.2,47.4,45.4,50.8,43.2,39.8,95,85,73,29.68,29.22,25,4,25,0.06
2013-11-2,50.2,45.5,43.3,45.4,42.2,38.3,94,88,77,30.06,29.67,13,1,13,0.11
2013-11-3,51.6,44.7,39.3,41.0,38.5,35.3,91,79,62,30.32,30.05,10,1,10,0.00
2013-11-4,52.8,45.9,38.4,43.1,38.6,34.8,88,76,62,30.34,30.18,16,2,16,0.00
2013-11-5,56.4,52.4,49.8,49.4,46.0,42.9,85,79,70,30.29,30.05,14,2,14,0.00
2013-11-6,56.9,51.0,41.8,53.3,47.5,38.6,95,88,66,30.05,29.77,28,5,28,0.55
2013-11-7,48.4,39.7,30.6,38.6,32.2,28.1,94,75,51,30.19,30.03,22,2,22,0.02
2013-11-8,47.6,39.2,29.9,35.6,32.0,28.2,95,77,53,30.30,30.08,13,1,13,0.01
2013-11-9,59.9,50.3,43.2,43.1,37.5,32.1,67,62,49,30.08,29.84,29,6,29,0.00
2013-11-10,48.5,41.8,29.5,36.2,31.4,27.0,93,67,51,30.29,29.98,30,5,30,0.00
2013-11-11,46.9,37.8,29.4,40.1,32.0,22.4,93,81,62,30.37,30.05,19,3,19,0.11
2013-11-12,35.2,28.9,22.9,28.7,22.3,17.8,88,76,65,30.61,30.37,15,2,15,0.00
2013-11-13,39.5,29.1,20.3,22.5,18.6,14.8,85,66,42,30.58,30.22,17,3,17,0.00
2013-11-14,51.4,39.9,29.7,28.7,23.5,19.3,71,53,36,30.22,29.97,14,4,19,0.00
2013-11-15,50.9,44.4,32.0,35.9,30.2,24.8,78,58,48,30.02,29.95,14,2,14,0.00
2013-11-16,58.1,48.8,34.5,55.9,45.2,30.3,93,87,73,29.99,29.65,23,5,23,0.06
2013-11-17,63.9,57.7,46.0,61.1,53.7,38.1,95,87,70,29.66,29.16,36,8,36,1.01
2013-11-18,45.9,39.4,36.0,38.2,32.1,26.8,85,75,66,30.18,29.62,28,5,28,0.00
2013-11-19,47.1,36.2,25.7,30.2,27.5,24.3,95,72,46,30.34,30.17,14,2,14,0.00
2013-11-20,45.3,34.2,23.4,37.8,28.8,22.0,96,82,58,30.35,30.13,13,1,13,0.03
2013-11-21,47.8,44.5,39.6,45.4,41.8,37.5,97,90,78,30.20,30.13,14,2,14,0.58
2013-11-22,46.2,39.0,28.1,45.4,36.9,25.8,100,92,82,30.40,30.13,22,4,22,0.05
2013-11-23,30.5,26.1,20.1,27.0,20.1,13.2,91,78,60,30.60,30.33,26,4,26,0.01
2013-11-24,27.5,20.0,13.3,19.5,13.8,5.5,90,78,44,30.66,30.44,15,1,15,0.04
2013-11-25,30.7,25.8,18.8,26.4,17.9,8.2,91,72,59,30.44,30.11,18,3,18,0.03
2013-11-26,34.3,30.6,27.3,29.1,25.9,21.5,92,83,67,30.11,29.95,20,2,20,0.00
2013-11-27,28.7,26.2,22.5,24.9,21.9,18.5,90,83,74,30.23,30.00,17,2,17,0.14
2013-11-28,31.5,25.7,21.6,23.7,18.8,14.7,87,75,63,30.44,30.21,13,1,13,0.00
2013-11-29,36.4,30.4,23.8,25.1,22.4,20.6,90,73,55,30.62,30.44,10,1,10,0.00
2013-11-30,48.2,35.7,27.4,34.6,28.4,23.4,88,75,57,30.47,30.06,14,2,14,0.00
2013-12-1,44.9,37.2,27.4,36.8,30.7,25.0,91,78,63,30.07,29.97,12,1,12,0.00
2013-12-2,43.6,34.8,26.6,33.0,29.5,24.0,91,81,60,29.97,29.81,8,1,8,0.01
2013-12-3,48.2,41.5,34.7,45.9,39.5,32.3,100,93,89,29.81,29.71,9,1,9,0.08
2013-12-4,60.0,51.1,40.0,57.3,49.0,37.8,97,93,87,29.77,29.55,17,3,17,0.00
2013-12-5,59.9,35.6,27.3,56.0,29.1,19.8,87,77,68,30.19,29.57,23,4,23,0.00
2013-12-6,28.5,26.8,24.1,21.9,19.4,14.5,78,73,66,30.43,30.17,15,4,15,0.00
2013-12-7,24.2,20.9,12.7,17.8,13.8,9.9,89,74,62,30.64,30.43,15,3,15,0.00
2013-12-8,26.9,21.7,13.1,24.6,17.1,10.4,93,82,67,30.57,29.95,15,2,15,0.04
2013-12-9,27.6,22.6,14.3,25.0,17.4,6.0,93,80,68,30.18,29.91,16,4,21,0.00
2013-12-10,23.6,14.4,2.3,13.7,6.3,-2.9,80,70,59,30.29,30.03,31,4,31,0.00
2013-12-11,26.2,18.3,13.3,20.5,12.6,5.8,90,78,66,30.50,30.28,20,3,20,0.05
2013-12-12,20.2,11.1,-2.3,12.6,3.5,-7.5,79,72,50,30.52,30.26,21,3,21,0.00
2013-12-13,33.6,22.5,6.9,25.1,15.5,3.8,100,75,56,30.26,30.14,8,1,8,0.05
2013-12-14,28.0,24.8,21.8,25.1,22.1,18.5,92,89,86,30.16,29.84,14,2,14,0.39
2013-12-15,26.5,18.1,9.6,23.5,13.7,4.9,92,83,73,30.10,29.88,19,3,19,0.00
2013-12-16,21.9,15.2,0.8,17.5,10.7,-2.4,91,82,71,30.18,30.01,8,0,8,0.06
2013-12-17,28.6,22.9,17.0,25.0,19.9,14.8,92,88,80,30.05,29.93,16,3,16,0.02
2013-12-18,32.2,23.5,16.3,24.5,16.6,12.4,85,75,65,30.19,29.88,15,3,15,0.00
2013-12-19,42.9,39.5,32.6,37.0,34.1,25.3,92,81,67,29.95,29.81,18,2,18,0.00
2013-12-20,45.1,40.4,36.3,42.6,38.7,34.4,98,94,89,29.81,29.67,7,0,7,0.22
2013-12-21,37.9,35.5,33.1,36.5,34.3,32.0,100,95,94,29.80,29.54,23,2,23,0.60
2013-12-22,35.9,34.0,30.7,34.2,32.3,27.5,100,93,88,30.02,29.46,18,3,18,0.14
2013-12-23,30.8,23.1,6.9,27.8,18.3,1.8,90,82,67,30.41,30.02,19,4,19,0.00
2013-12-24,20.9,11.0,3.5,13.3,6.1,-1.3,93,80,68,30.55,30.40,14,2,14,0.00
2013-12-25,27.0,22.9,17.1,25.5,18.9,13.3,94,84,75,30.46,30.08,19,4,19,0.04
2013-12-26,33.7,26.3,20.1,27.1,21.4,15.6,94,82,68,30.29,30.07,18,3,18,0.01
2013-12-27,41.6,35.9,29.9,33.2,30.1,26.6,88,79,69,30.30,30.09,18,3,18,0.00
2013-12-28,49.7,41.1,35.5,38.1,33.6,30.8,84,75,64,30.10,29.86,19,3,19,0.00
2013-12-29,40.9,33.5,23.2,33.4,28.1,18.8,90,81,72,30.06,29.73,23,4,23,0.01
2013-12-30,23.2,18.6,13.9,18.7,12.8,8.8,94,78,65,30.28,30.06,19,2,19,0.00
2013-12-31,18.3,13.9,10.8,14.5,9.5,5.7,95,82,66,30.35,30.14,17,2,17,0.11
2014-1-1,19.5,17.0,13.4,14.8,13.2,10.0,88,85,79,30.32,30.17,14,2,14,0.15
2014-1-2,15.7,12.4,-1.4,11.7,7.3,-6.0,88,80,64,30.37,30.07,18,4,18,0.15